Preview of NWS' New Version of Forecast
This preview is not operational and should not be used for support decisions.

Regional Weather Roundup (RWR)

Issued by National Weather Service (NWS)

                            
000
ASUS43 KMKX 201211
RWRWI 

WISCONSIN REGIONAL WEATHER ROUNDUP
NATIONAL WEATHER SERVICE MILWAUKEE/SULLIVAN WI
700 AM CDT THU JUN 20 2019

NOTE: "FAIR" INDICATES FEW OR NO CLOUDS BELOW 12,000 FEET WITH NO
SIGNIFICANT WEATHER AND/OR OBSTRUCTIONS TO VISIBILITY.

WIZ001-002-006>008-014>016-023>028-201300-
NORTHWEST WISCONSIN
  
CITY           SKY/WX    TMP DP  RH WIND       PRES   REMARKS
SUPERIOR ARPT  FAIR      48  48 100 CALM      29.86S                  
6HR MIN TEMP:  45; 6HR MAX TEMP:  51;                                

ASHLAND        FAIR      48  48 100 CALM      29.87R                  
6HR MIN TEMP:  38; 6HR MAX TEMP:  48;                                

HAYWARD        FAIR      53  48  83 CALM      29.86R                  
6HR MIN TEMP:  49; 6HR MAX TEMP:  53;                                

SIREN          FAIR      56  47  71 E3        29.83S                  
6HR MIN TEMP:  53; 6HR MAX TEMP:  58;                                

CUMBERLAND     FAIR      55  45  67 E6        29.83S                  
RICE LAKE      FAIR      58  46  63 NE5       29.84S                  
6HR MIN TEMP:  57; 6HR MAX TEMP:  60;                                

CHETEK         FAIR      57  48  73 E5        29.83F                  
6HR MIN TEMP:  56; 6HR MAX TEMP:  61;                                

LADYSMITH      FAIR      54  47  78 N3        29.86S                  
6HR MIN TEMP:  50; 6HR MAX TEMP:  56;                                

EAU CLAIRE     FAIR      58  48  69 E8        29.81R                  
6HR MIN TEMP:  56; 6HR MAX TEMP:  60;                                

MENOMONIE      FAIR      56  47  70 E6        29.82S                  
6HR MIN TEMP:  55; 6HR MAX TEMP:  59;                                

NEW RICHMOND   FAIR      60  48  66 E9        29.79F                  
6HR MIN TEMP:  59; 6HR MAX TEMP:  63;                                

OSCEOLA        FAIR      61  49  64 E9        29.82F                  
6HR MIN TEMP:  60; 6HR MAX TEMP:  63;                                

$$
 
WIZ003>005-009-010-017-018-201300-
NORTH CENTRAL WISCONSIN
  
CITY           SKY/WX    TMP DP  RH WIND       PRES   REMARKS
MANITOWISH WTR FAIR      50  50 100 CALM      29.86R                  
6HR MIN TEMP:  41; 6HR MAX TEMP:  50;                                

ARBOR VITAE    FAIR      52  47  83 N5        29.85R                  
6HR MIN TEMP:  45; 6HR MAX TEMP:  52;                                

WOODRUFF       FAIR      52  47  83 N5        29.85R                  
6HR MIN TEMP:  45; 6HR MAX TEMP:  52;                                

RHINELANDER    FAIR      54  45  71 CALM      29.85R                  
6HR MIN TEMP:  46; 6HR MAX TEMP:  54;                                

EAGLE RIVER    FAIR      49  45  86 CALM      29.84S                  
6HR MIN TEMP:  39; 6HR MAX TEMP:  49;                                

LAND O LAKES   FAIR      51  45  79 CALM      29.87S                  
6HR MIN TEMP:  39; 6HR MAX TEMP:  51;                                

PHILLIPS       FAIR      49  49 100 CALM      29.85S                  
6HR MIN TEMP:  42; 6HR MAX TEMP:  49;                                

TOMAHAWK       FAIR      49  46  90 CALM      29.85R                  
6HR MIN TEMP:  40; 6HR MAX TEMP:  49;                                

MEDFORD        FAIR      51  44  77 NE5       29.83S                  
6HR MIN TEMP:  47; 6HR MAX TEMP:  52;                                

MERRILL        FAIR      51  47  88 CALM      29.84R                  
6HR MIN TEMP:  44; 6HR MAX TEMP:  52;                                

$$
 
WIZ029-030-035-036-043>047-201300-
CENTRAL WISCONSIN
  
CITY           SKY/WX    TMP DP  RH WIND       PRES   REMARKS
WAUSAU         FAIR      55  43  63 N6        29.80S                  
6HR MIN TEMP:  53; 6HR MAX TEMP:  57;                                

MOSINEE        PTSUNNY   54  45  71 N7        29.82R                  
MARSHFIELD     FAIR      56  44  64 NE7       29.81R                  
6HR MIN TEMP:  54; 6HR MAX TEMP:  58;                                

STEVENS POINT  FAIR      51  45  78 N5        29.81S                  
6HR MIN TEMP:  49; 6HR MAX TEMP:  54;                                

WAUPACA        FAIR      58  47  67 N7        29.78R                  
6HR MIN TEMP:  57; 6HR MAX TEMP:  59;                                

WAUTOMA        FAIR      57  48  72 N7        29.78R                  
6HR MIN TEMP:  56; 6HR MAX TEMP:  58;                                

WISC RAPIDS    FAIR      57  45  64 N8        29.80R                  
6HR MIN TEMP:  56; 6HR MAX TEMP:  59;                                

CAMP DOUGLAS   PTSUNNY   54  54 100 W6        29.80R                  
$$
 
WIZ011>013-019>022-031-037>040-048>050-201300-
NORTHEAST WISCONSIN
  
CITY           SKY/WX    TMP DP  RH WIND       PRES   REMARKS
ANTIGO         FAIR      52  44  76 NE8       29.82S                  
6HR MIN TEMP:  47; 6HR MAX TEMP:  52;                                

SHAWANO        FAIR      57  47  69 N8        29.78R                  
6HR MIN TEMP:  56; 6HR MAX TEMP:  60;                                

OCONTO         FAIR      55  47  76 N3        29.77R                  
6HR MIN TEMP:  52; 6HR MAX TEMP:  58;                                

STURGEON BAY   FAIR      56  50  80 N8        29.76R                  
6HR MIN TEMP:  54; 6HR MAX TEMP:  60;                                

GREEN BAY      FAIR      56  48  74 N9        29.76R                  
6HR MIN TEMP:  55; 6HR MAX TEMP:  62;                                

MANITOWOC      PTSUNNY   56  48  74 N10       29.74R                  
6HR MIN TEMP:  55; 6HR MAX TEMP:  59;                                

APPLETON       MOSUNNY   55  45  67 N13       29.75R                  
CLINTONVILLE   FAIR      56  45  65 N6        29.79R                  
6HR MIN TEMP:  55; 6HR MAX TEMP:  59;                                

OSHKOSH        CLOUDY    57  50  77 N8        29.75R                  
6HR MIN TEMP:  57; 6HR MAX TEMP:  62;                                

$$
 
WIZ032>034-041-042-053>061-201300-
SOUTHWEST WISCONSIN
  
CITY           SKY/WX    TMP DP  RH WIND       PRES   REMARKS
LA CROSSE      FAIR      62  54  74 NE5       29.78S                  
6HR MIN TEMP:  59; 6HR MAX TEMP:  66;                                

SPARTA         FAIR      52  50  94 CALM      29.81R                  
6HR MIN TEMP:  46; 6HR MAX TEMP:  53;                                

VIROQUA        FAIR      57  56  97 NE8       29.79S                  
6HR MIN TEMP:  55; 6HR MAX TEMP:  59;                                

BOSCOBEL       FAIR      57  55  93 CALM      29.77S                  
6HR MIN TEMP:  54; 6HR MAX TEMP:  59;                                

PRAIRIE DU CHI FAIR      58  57  95 CALM      29.78S                  
6HR MIN TEMP:  55; 6HR MAX TEMP:  59;                                

PLATTEVILLE    FAIR      58  58 100 N9        29.77S                  
6HR MIN TEMP:  56; 6HR MAX TEMP:  59;                                

$$

WIZ056-057-062-063-064-067-068-201300-
SOUTH CENTRAL WISCONSIN
  
CITY           SKY/WX    TMP DP  RH WIND       PRES   REMARKS
REEDSBURG      FAIR      56  53  89 N3        29.77S                  
6HR MIN TEMP:  54; 6HR MAX TEMP:  58;                                

BARABOO/DELLS  PTSUNNY   55  52  89 CALM      29.77S                  
6HR MIN TEMP:  54; 6HR MAX TEMP:  57;                                

LONE ROCK      FAIR      58  54  86 NW5       29.77R                  
6HR MIN TEMP:  55; 6HR MAX TEMP:  59;                                

MINERAL POINT  FAIR      59  59 100 N7        29.77R                  
MADISON        PTSUNNY   59  54  83 N12       29.74R                  
6HR MIN TEMP:  56; 6HR MAX TEMP:  59;                                

MIDDLETON      FAIR      60  55  82 N7        29.75S                  
6HR MIN TEMP:  57; 6HR MAX TEMP:  60;                                

WATERTOWN      PTSUNNY   58  53  85 N7        29.73R                  
6HR MIN TEMP:  57; 6HR MAX TEMP:  59;                                

MONROE         FAIR      58  55  89 N13G18    29.73S                  
6HR MIN TEMP:  56; 6HR MAX TEMP:  58;                                

JANESVILLE     PTSUNNY   61  57  88 N8        29.71R                  
$$
 
WIZ051-052-058>065-066-070>072-201300-
SOUTHEAST WISCONSIN
  
CITY           SKY/WX    TMP DP  RH WIND       PRES   REMARKS
MILWAUKEE      CLOUDY    57  54  89 N8        29.69R FOG              
6HR MIN TEMP:  53; 6HR MAX TEMP:  57; 6HR PCP:  0.18;                

WAUKESHA       CLOUDY    54  54 100 NW7       29.73R FOG              
MILWAUKEE/TIMM CLOUDY    55  52  88 N7        29.72R FOG              
RACINE         LGT RAIN  55  53  93 N13       29.70R                  
6HR MIN TEMP:  52; 6HR MAX TEMP:  55; 6HR PCP:  0.16;                

KENOSHA        LGT RAIN  57  56  96 N8        29.69R FOG              
6HR MIN TEMP:  56; 6HR MAX TEMP:  57;                                

FOND DU LAC    CLOUDY    61  50  67 N13       29.75R                  
6HR MIN TEMP:  61; 6HR MAX TEMP:  63;                                

SHEBOYGAN      CLOUDY    56  50  80 N8        29.72R                  
6HR MIN TEMP:  54; 6HR MAX TEMP:  58; 6HR PCP:  0.01;                

WEST BEND      HVY RAIN  54  52  94 N8        29.73R                  
JUNEAU         CLOUDY    58  51  76 N8        29.75R                  
6HR MIN TEMP:  56; 6HR MAX TEMP:  58;                                

$$

LSZ147-162-201300-
LAKE SUPERIOR
  
STATION/POSITION TIME  TEMP    WIND        PRES    WAVE
                       AIR SEA DIR/SP/G            HT/PER
                 (UTC) (F)     (DEG/KT/KT) (MB)    (FT/S)
W MID LAKE BUOY  1150   43 38  330/  6/  8 1011.4R   0
$$
 
LMZ867-665-643>646-201300-
LAKE MICHIGAN
  
STATION/POSITION TIME  TEMP    WIND        PRES    WAVE
                       AIR SEA DIR/SP/G            HT/PER
                 (UTC) (F)     (DEG/KT/KT) (MB)    (FT/S)
N MID LAKE BUOY  1150   45 39   20/ 12/ 14 1007.8S   1/ 3
NORTHPORT P